Weather in Dotnuva

Lithuania     55°22′00″N   23°53′17″E
temp.,
°C
wind,
m/s
gust,
m/s
humid.,
%
clouds,
%
prec.,
mm/h
press.,
hPa
HPBL,
m
26 july, mon
mon2600:00+21e336875 0.0 101858
03:00+19sse2376100 0.0 101862
06:00+18se3376100 0.0 101850
09:00+22se4567100 0.0 1018276
12:00+26se5650100 0.0 1018995
15:00+28se5644100 0.0 10181924
18:00+27ese574962 0.0 10171814
21:00+22ese4107099 0.0 1016215
27 july, tue
tue2700:00+20ese4107178 0.0 1017198
03:00+19ese4117048 0.0 1016267
06:00+18ese41285100 0.4 1015296
09:00+19ese51185100 0.6 1014403
12:00+21se6107724 0.3 1013671
15:00+28se7952100 0.6 10111863
18:00+23s5984100 3.4 1011475
21:00+20s3695100 5.6 1010171
28 july, wed
wed2800:00+19s259795 1.6 1011143
03:00+18wsw389874 2.6 1010241
06:00+17wsw389932 0.0 1010243
09:00+21wsw598721 0.0 1011508
12:00+25w685776 0.0 10111228
15:00+27wsw6848100 0.0 10102381
18:00+26w685565 0.0 10101508
21:00+21w48735 0.1 1010154
29 july, thu
thu2900:00+18wsw35814 0.0 101183
03:00+16wsw3683100 0.0 1011106
06:00+17wsw3878100 0.0 1011216
09:00+21w477048 0.0 1011490
12:00+24wsw565423 0.0 10111463
15:00+25w4551100 0.3 10111910
18:00+24wsw3560100 0.1 1010485
21:00+20wsw22782 0.3 101020
30 july, fri
fri3000:00+18sw22845 0.0 101018
03:00+18s248542 0.0 101087
06:00+17ssw368579 0.0 1009130
09:00+22ssw4767100 0.0 1008365
12:00+27sw610497 0.0 10071768
15:00+27ssw475097 0.0 10051353
18:00+20s2388100 4.3 1005162
21:00+19ssw3494100 10.5 100487